Weather Roundup
Issued by NWS

Home | Current Version | Previous Version | Text Only | Print | Product List | Glossary On
Versions: 1 2 3 4 5 6 7 8 9 10 11 12 13 14 15 16 17 18 19 20 21 22 23 24 25 26 27 28 29 30 31 32 33 34 35 36 37 38 39 40 41 42 43 44 45 46 47 48 49 50
000
NZUS93 KARX 010110
HRRWXR

CURRENT HOURLY OBSERVATIONS ACROSS
MUCH OF THE UPPER MISSISSIPPI VALLEY
NATIONAL WEATHER SERVICE LA CROSSE WI
800 PM CDT FRI JUL 31 2015


...SOUTHEAST MINNESOTA...


CITY           SKY/WX    TMP DP  RH WIND       PRES   REMARKS
ROCHESTER      CLEAR     72  57  59 W8        30.02S
ROCHESTER/MAYO FAIR      76  55  47 W7        30.01S
WINONA         CLEAR     77  54  44 CALM      29.98R
AUSTIN         CLEAR     75  57  53 W6        30.03S
ALBERT LEA     CLEAR     75  61  60 CALM      30.04S
DODGE CENTER   CLEAR     73  55  53 NW5       30.02F
PRESTON        CLEAR     71  56  58 NW6       30.03S
OWATONNA       CLEAR     73  61  64 W5        30.02S
FARIBAULT      CLEAR     73  61  64 W5        30.02S
$$

...ELSEWHERE IN MINNESOTA...


CITY           SKY/WX    TMP DP  RH WIND       PRES   REMARKS
MINNEAPOLIS    PTCLDY    79  54  41 W12G21    29.98S
INTNL FALLS    PTCLDY    71  51  49 W10G22    29.90S
DULUTH         PTCLDY    73  48  41 NW13      29.92S
RED WING       CLEAR     75  55  50 NW3       29.97R
REDWOOD FALLS  CLEAR     77  59  53 W5        30.02S
MANKATO        CLEAR     75  55  50 W6        30.02S
WORTHINGTON    CLEAR     75  57  53 SW6       30.06F
FAIRMONT       CLEAR     77  54  44 CALM      30.04F
$$

...SOUTHWEST WISCONSIN...


CITY           SKY/WX    TMP DP  RH WIND       PRES   REMARKS
LA CROSSE      CLEAR     77  55  46 W5        29.97R
PRAIRIE DU CHI CLEAR     77  51  40 W5        29.99R
BOSCOBEL       CLEAR     77  55  46 CALM      29.98R
LONE ROCK      CLEAR     75  51  43 NW5       29.98R
PLATTEVILLE    CLEAR     73  53  48 W3        30.00S
FORT MC COY    CLEAR     74  48  39 W3        29.98S
CAMP DOUGLAS   CLEAR     70  56  61 W7        29.96S
VIROQUA        FAIR      70  55  57 W3        30.00S
WIS DELLS      CLEAR     74  46  36 W6        29.97R
$$

...ELSEWHERE IN WISCONSIN...


CITY           SKY/WX    TMP DP  RH WIND       PRES   REMARKS
MILWAUKEE      PTCLDY    80  47  31 NW14      29.92S
MADISON        PTCLDY    76  49  38 W5        29.96R
GREEN BAY      CLOUDY    73  52  47 NW15      29.91R
EAU CLAIRE     CLEAR     74  52  46 W7        29.95S
BLACK RVR FLS  FAIR      75  49  39 W7        29.96S
MEDFORD        PTCLDY    69  53  56 W6        29.95S
WAUSAU         CLOUDY    67  55  65 VRB7      29.94R
WIS RAPIDS     CLEAR     74  50  42 NW7       29.96S
MARSHFIELD     CLEAR     72  50  45 W7        29.95S
RICE LAKE      CLEAR     71  51  50 W5        29.97S
$$

...NORTHEAST IOWA...


CITY           SKY/WX    TMP DP  RH WIND       PRES   REMARKS
DECORAH        CLEAR     75  55  50 NW5       30.01R
MASON CITY     LGT RAIN  75  62  64 W6        30.06R
CHARLES CITY   CLEAR     73  63  68 W5        30.04S
OELWEIN        CLEAR     73  64  73 W6        30.04R
$$

...ELSEWHERE IN IOWA...


CITY           SKY/WX    TMP DP  RH WIND       PRES   REMARKS
DES MOINES     PTCLDY    84  59  42 E6        30.03S
IOWA CITY      CLEAR     78  61  55 W6        30.04R
FORT DODGE     CLEAR     75  64  69 CALM      30.07S
$$

...NORTHERN ILLINOIS...


CITY           SKY/WX    TMP DP  RH WIND       PRES   REMARKS
CHICAGO-OHARE  CLEAR     80  48  32 NW10      29.94R
CHICAGO-MIDWAY PTCLDY    82  48  30 NW13      29.94R
MOLINE         CLEAR     80  55  42 NW10      30.01R
ROCKFORD       PTCLDY    77  49  37 NW12      29.98R
PEORIA         CLEAR     82  64  54 NW5       30.00S
$$

NOTE: "FAIR" INDICATES FEW OR NO CLOUDS BELOW 12,000 FEET WITH NO
SIGNIFICANT WEATHER AND/OR OBSTRUCTIONS TO VISIBILITY. WIND
SPEEDS ARE IN MILES-PER-HOUR.



USA.gov is the U.S. government's official web portal to all federal, state and local government web resources and services.